AAL915 TNCA-KMIA

Flight info

Callsign AAL915
Flight time 2h 44m
Altitude 35000
Route VESKA1F VESKA DCT BEXIL DCT MALVN/N0463F340 Y261 BOOZY/N0463F360 Y261 MADIZ VIICE2
Aircraft A321/M-SDE3FGHIRWY/LB1

Departure

Time 2026-05-07 18:09
Airport Queen Beatrix International Airport (TNCA)

Arrival

Time 2026-05-07 20:53
Airport Miami International Airport (KMIA)
Time Latitude Longitude Altitude Speed Heading
2026-05-07 17:42 12.50272 -70.00761 47 ft 0 kts 16°
2026-05-07 17:56 12.50263 -70.00764 46 ft 3 kts 16°
2026-05-07 17:57 12.50245 -70.00770 43 ft 3 kts 17°
2026-05-07 17:57 12.50227 -70.00775 43 ft 3 kts 17°
2026-05-07 17:57 12.50209 -70.00781 44 ft 3 kts
2026-05-07 17:57 12.50189 -70.00771 44 ft 2 kts 285°
2026-05-07 17:58 12.50188 -70.00769 43 ft 0 kts 285°
2026-05-07 18:01 12.50192 -70.00782 45 ft 6 kts 285°
2026-05-07 18:02 12.50227 -70.00916 45 ft 12 kts 284°
2026-05-07 18:02 12.50249 -70.01006 47 ft 14 kts 284°
2026-05-07 18:02 12.50257 -70.01085 47 ft 9 kts 247°
2026-05-07 18:03 12.50231 -70.01141 47 ft 8 kts 261°
2026-05-07 18:03 12.50241 -70.01199 47 ft 9 kts 282°
2026-05-07 18:03 12.50258 -70.01271 44 ft 11 kts 284°
2026-05-07 18:03 12.50277 -70.01354 46 ft 13 kts 283°
2026-05-07 18:04 12.50300 -70.01450 44 ft 14 kts 283°
2026-05-07 18:04 12.50324 -70.01554 46 ft 16 kts 283°
2026-05-07 18:04 12.50352 -70.01668 46 ft 17 kts 283°
2026-05-07 18:04 12.50381 -70.01792 45 ft 18 kts 283°
2026-05-07 18:05 12.50411 -70.01921 45 ft 19 kts 283°
2026-05-07 18:05 12.50443 -70.02057 42 ft 20 kts 284°
2026-05-07 18:05 12.50477 -70.02197 45 ft 21 kts 283°
2026-05-07 18:05 12.50511 -70.02341 44 ft 21 kts 284°
2026-05-07 18:06 12.50546 -70.02488 44 ft 21 kts 283°
2026-05-07 18:06 12.50572 -70.02600 44 ft 8 kts 283°
2026-05-07 18:06 12.50570 -70.02657 42 ft 9 kts 245°
2026-05-07 18:06 12.50540 -70.02716 39 ft 10 kts 242°
2026-05-07 18:07 12.50501 -70.02789 37 ft 13 kts 235°
2026-05-07 18:07 12.50446 -70.02802 35 ft 7 kts 137°
2026-05-07 18:07 12.50434 -70.02772 42 ft 0 kts 103°
2026-05-07 18:08 12.50434 -70.02770 16 ft 2 kts 103°
2026-05-07 18:08 12.50398 -70.02619 33 ft 54 kts 103°
2026-05-07 18:08 12.50262 -70.02042 41 ft 110 kts 103°
2026-05-07 18:08 12.50045 -70.01127 76 ft 150 kts 103°
2026-05-07 18:09 12.49823 -70.00132 801 ft 137 kts 100°
2026-05-07 18:09 12.49616 -69.99205 1500 ft 133 kts 103°
2026-05-07 18:09 12.49380 -69.98252 1902 ft 144 kts 103°
2026-05-07 18:09 12.49144 -69.97220 2362 ft 153 kts 101°
2026-05-07 18:10 12.48914 -69.96136 2804 ft 162 kts 102°
2026-05-07 18:10 12.48681 -69.94972 3167 ft 173 kts 98°
2026-05-07 18:10 12.48971 -69.93770 3559 ft 187 kts 57°
2026-05-07 18:10 12.50150 -69.93115 3980 ft 205 kts 18°
2026-05-07 18:11 12.51554 -69.92774 4405 ft 209 kts 20°
2026-05-07 18:11 12.52955 -69.92364 4833 ft 210 kts 21°
2026-05-07 18:11 12.54372 -69.91929 5145 ft 216 kts 22°
2026-05-07 18:11 12.55844 -69.91485 5413 ft 225 kts 21°
2026-05-07 18:12 12.57384 -69.91018 5552 ft 238 kts 20°
2026-05-07 18:12 12.59025 -69.90489 5655 ft 258 kts 21°
2026-05-07 18:12 12.60806 -69.89915 5831 ft 278 kts 20°
2026-05-07 18:12 12.62680 -69.89332 6325 ft 284 kts 19°
2026-05-07 18:13 12.64585 -69.88757 6860 ft 287 kts 21°
2026-05-07 18:13 12.66514 -69.88188 7453 ft 289 kts 19°
2026-05-07 18:13 12.68452 -69.87623 8039 ft 291 kts 18°
2026-05-07 18:13 12.70402 -69.87059 8636 ft 291 kts 19°
2026-05-07 18:14 12.72352 -69.86493 9229 ft 292 kts 18°
2026-05-07 18:14 12.74316 -69.85923 9787 ft 294 kts 19°
2026-05-07 18:14 12.76309 -69.85340 10114 ft 305 kts 18°
2026-05-07 18:14 12.78400 -69.84725 10230 ft 321 kts 17°
2026-05-07 18:15 12.80600 -69.84077 10351 ft 336 kts 18°
2026-05-07 18:15 12.82864 -69.83409 10467 ft 351 kts 17°
2026-05-07 18:15 12.85257 -69.82707 10591 ft 364 kts 18°
2026-05-07 18:15 12.87713 -69.81988 10885 ft 370 kts 17°
2026-05-07 18:16 12.90201 -69.81260 11316 ft 373 kts 18°
2026-05-07 18:16 12.92697 -69.80530 11770 ft 374 kts 16°
2026-05-07 18:16 12.95274 -69.80044 12189 ft 380 kts
2026-05-07 18:16 12.97925 -69.80078 12631 ft 384 kts 356°
2026-05-07 18:17 13.00560 -69.80642 13044 ft 390 kts 345°
2026-05-07 18:17 13.03160 -69.81461 13451 ft 392 kts 347°
2026-05-07 18:17 13.05772 -69.82278 13858 ft 393 kts 345°
2026-05-07 18:17 13.08394 -69.83092 14239 ft 394 kts 346°
2026-05-07 18:18 13.11019 -69.83906 14618 ft 395 kts 346°
2026-05-07 18:18 13.13653 -69.84723 15004 ft 396 kts 345°
2026-05-07 18:18 13.16291 -69.85545 15368 ft 397 kts 346°
2026-05-07 18:18 13.18938 -69.86371 15735 ft 398 kts 345°
2026-05-07 18:19 13.21587 -69.87197 16081 ft 399 kts 346°
2026-05-07 18:19 13.24251 -69.88024 16408 ft 400 kts 346°
2026-05-07 18:19 13.26922 -69.88853 16749 ft 401 kts 345°
2026-05-07 18:19 13.29594 -69.89683 17066 ft 402 kts 345°
2026-05-07 18:20 13.32280 -69.90519 17362 ft 404 kts 345°
2026-05-07 18:20 13.34970 -69.91358 17688 ft 404 kts 346°
2026-05-07 18:20 13.37670 -69.92200 17981 ft 406 kts 345°
2026-05-07 18:20 13.40376 -69.93044 18289 ft 407 kts 346°
2026-05-07 18:21 13.43089 -69.93891 18573 ft 408 kts 345°
2026-05-07 18:21 13.45806 -69.94740 18826 ft 409 kts 345°
2026-05-07 18:21 13.48537 -69.95591 19085 ft 411 kts 346°
2026-05-07 18:21 13.51270 -69.96443 19364 ft 412 kts 346°
2026-05-07 18:22 13.54017 -69.97302 19619 ft 413 kts 346°
2026-05-07 18:22 13.55842 -69.97872 19810 ft 414 kts 345°
2026-05-07 18:22 13.59533 -69.99025 20186 ft 415 kts 346°
2026-05-07 18:22 13.62268 -69.99880 20465 ft 417 kts 345°
2026-05-07 18:23 13.65047 -70.00749 20749 ft 418 kts 346°
2026-05-07 18:23 13.67875 -70.01633 21028 ft 420 kts 345°
2026-05-07 18:23 13.70636 -70.02496 21305 ft 421 kts 346°
2026-05-07 18:23 13.73447 -70.03374 21595 ft 423 kts 346°
2026-05-07 18:24 13.76262 -70.04253 21887 ft 424 kts 346°
2026-05-07 18:24 13.79089 -70.05136 22171 ft 425 kts 346°
2026-05-07 18:24 13.81922 -70.06024 22445 ft 427 kts 346°
2026-05-07 18:24 13.84767 -70.06916 22716 ft 428 kts 346°
2026-05-07 18:25 13.87617 -70.07807 22980 ft 429 kts 346°
2026-05-07 18:25 13.90480 -70.08704 23231 ft 431 kts 346°
2026-05-07 18:25 13.93348 -70.09602 23480 ft 432 kts 346°
2026-05-07 18:25 13.96229 -70.10503 23698 ft 433 kts 346°
2026-05-07 18:26 13.99113 -70.11406 23911 ft 434 kts 346°
2026-05-07 18:26 14.02007 -70.12314 24117 ft 435 kts 346°
2026-05-07 18:26 14.04908 -70.13225 24322 ft 436 kts 346°
2026-05-07 18:26 14.07813 -70.14137 24535 ft 437 kts 346°
2026-05-07 18:27 14.10725 -70.15050 24774 ft 437 kts 346°
2026-05-07 18:27 14.13636 -70.15964 24992 ft 438 kts 346°
2026-05-07 18:27 14.16556 -70.16882 25197 ft 439 kts 346°
2026-05-07 18:27 14.19481 -70.17799 25396 ft 440 kts 346°
2026-05-07 18:28 14.22417 -70.18720 25597 ft 441 kts 346°
2026-05-07 18:28 14.25355 -70.19644 25792 ft 442 kts 345°
2026-05-07 18:28 14.28304 -70.20574 25991 ft 443 kts 346°
2026-05-07 18:28 14.31255 -70.21505 26195 ft 444 kts 346°
2026-05-07 18:29 14.34207 -70.22437 26369 ft 445 kts 346°
2026-05-07 18:29 14.37169 -70.23373 26538 ft 446 kts 346°
2026-05-07 18:29 14.40135 -70.24307 26696 ft 447 kts 346°
2026-05-07 18:29 14.43113 -70.25240 26854 ft 447 kts 346°
2026-05-07 18:30 14.46092 -70.26173 27004 ft 448 kts 346°
2026-05-07 18:30 14.49079 -70.27111 27145 ft 449 kts 346°
2026-05-07 18:30 14.52072 -70.28051 27280 ft 450 kts 346°
2026-05-07 18:30 14.55067 -70.28991 27406 ft 451 kts 345°
2026-05-07 18:31 14.58071 -70.29937 27526 ft 451 kts 345°
2026-05-07 18:31 14.61075 -70.30884 27651 ft 452 kts 345°
2026-05-07 18:31 14.64085 -70.31835 27778 ft 452 kts 345°
2026-05-07 18:31 14.67093 -70.32789 27904 ft 453 kts 345°
2026-05-07 18:32 14.70067 -70.33731 28029 ft 453 kts 345°
2026-05-07 18:32 14.73122 -70.34695 28177 ft 453 kts 345°
2026-05-07 18:32 14.76091 -70.35630 28315 ft 452 kts 345°
2026-05-07 18:32 14.79103 -70.36577 28470 ft 452 kts 345°
2026-05-07 18:33 14.82108 -70.37529 28614 ft 452 kts 345°
2026-05-07 18:33 14.85114 -70.38483 28779 ft 452 kts 345°
2026-05-07 18:33 14.88115 -70.39433 28922 ft 451 kts 345°
2026-05-07 18:33 14.91117 -70.40382 29072 ft 451 kts 345°
2026-05-07 18:34 14.94113 -70.41329 29228 ft 451 kts 345°
2026-05-07 18:34 14.97112 -70.42277 29375 ft 450 kts 345°
2026-05-07 18:34 15.00104 -70.43224 29522 ft 450 kts 345°
2026-05-07 18:34 15.03100 -70.44168 29669 ft 450 kts 345°
2026-05-07 18:35 15.06092 -70.45111 29828 ft 449 kts 345°
2026-05-07 18:35 15.09077 -70.46058 29978 ft 449 kts 345°
2026-05-07 18:35 15.12062 -70.47008 30114 ft 448 kts 345°
2026-05-07 18:35 15.15039 -70.47955 30257 ft 448 kts 345°
2026-05-07 18:36 15.18016 -70.48900 30406 ft 447 kts 345°
2026-05-07 18:36 15.20984 -70.49837 30553 ft 446 kts 345°
2026-05-07 18:36 15.23951 -70.50772 30703 ft 445 kts 345°
2026-05-07 18:36 15.26912 -70.51707 30861 ft 444 kts 345°
2026-05-07 18:37 15.29861 -70.52645 31017 ft 443 kts 345°
2026-05-07 18:37 15.32802 -70.53587 31182 ft 442 kts 345°
2026-05-07 18:37 15.35742 -70.54528 31326 ft 442 kts 345°
2026-05-07 18:37 15.38674 -70.55465 31471 ft 441 kts 345°
2026-05-07 18:38 15.41608 -70.56397 31628 ft 440 kts 345°
2026-05-07 18:38 15.44533 -70.57324 31786 ft 440 kts 345°
2026-05-07 18:38 15.47456 -70.58250 31962 ft 439 kts 345°
2026-05-07 18:38 15.50373 -70.59172 32134 ft 437 kts 345°
2026-05-07 18:39 15.53278 -70.60093 32309 ft 436 kts 345°
2026-05-07 18:39 15.56179 -70.61016 32487 ft 435 kts 345°
2026-05-07 18:39 15.59068 -70.61937 32669 ft 434 kts 345°
2026-05-07 18:39 15.61955 -70.62857 32846 ft 433 kts 345°
2026-05-07 18:40 15.64831 -70.63776 33022 ft 432 kts 345°
2026-05-07 18:40 15.67704 -70.64694 33200 ft 431 kts 345°
2026-05-07 18:40 15.70572 -70.65611 33377 ft 431 kts 345°
2026-05-07 18:40 15.73429 -70.66522 33560 ft 429 kts 345°
2026-05-07 18:41 15.76284 -70.67431 33743 ft 429 kts 345°
2026-05-07 18:41 15.79129 -70.68339 33918 ft 428 kts 345°
2026-05-07 18:41 15.81972 -70.69245 34084 ft 427 kts 345°
2026-05-07 18:41 15.84806 -70.70147 34225 ft 426 kts 345°
2026-05-07 18:42 15.87641 -70.71049 34359 ft 426 kts 345°
2026-05-07 18:42 15.90474 -70.71951 34490 ft 425 kts 345°
2026-05-07 18:42 15.93301 -70.72851 34616 ft 425 kts 345°
2026-05-07 18:42 15.96130 -70.73754 34744 ft 425 kts 345°
2026-05-07 18:43 15.98953 -70.74658 34878 ft 425 kts 346°
2026-05-07 18:43 16.01828 -70.75314 35000 ft 422 kts 352°
2026-05-07 18:43 16.04726 -70.75795 35121 ft 422 kts 352°
2026-05-07 18:43 16.07627 -70.76275 35244 ft 422 kts 352°
2026-05-07 18:44 16.10523 -70.76752 35366 ft 422 kts 352°
2026-05-07 18:44 16.13383 -70.77223 35477 ft 421 kts 352°
2026-05-07 18:44 16.16276 -70.77704 35616 ft 421 kts 352°
2026-05-07 18:44 16.19171 -70.78189 35734 ft 421 kts 352°
2026-05-07 18:45 16.22064 -70.78675 35866 ft 420 kts 352°
2026-05-07 18:45 16.24947 -70.79161 35983 ft 420 kts 352°
2026-05-07 18:45 16.27836 -70.79650 36012 ft 420 kts 352°
2026-05-07 18:46 16.33604 -70.80621 36018 ft 420 kts 352°
2026-05-07 18:46 16.39371 -70.81577 36015 ft 420 kts 352°
2026-05-07 18:47 16.45134 -70.82541 36015 ft 419 kts 352°
2026-05-07 18:47 16.50896 -70.83509 36024 ft 420 kts 352°
2026-05-07 18:48 16.56663 -70.84467 36029 ft 420 kts 352°
2026-05-07 18:48 16.61458 -70.85268 36029 ft 420 kts 352°
2026-05-07 18:49 16.67223 -70.86240 36034 ft 420 kts 352°
2026-05-07 18:49 16.72992 -70.87213 36032 ft 420 kts 352°
2026-05-07 18:50 16.78767 -70.88184 36023 ft 421 kts 352°
2026-05-07 18:50 16.84550 -70.89152 36019 ft 421 kts 352°
2026-05-07 18:51 16.90339 -70.90119 36018 ft 421 kts 352°
2026-05-07 18:51 16.96129 -70.91093 36026 ft 421 kts 352°
2026-05-07 18:52 17.01919 -70.92067 36030 ft 422 kts 352°
2026-05-07 18:52 17.07712 -70.93040 36028 ft 422 kts 352°
2026-05-07 18:53 17.13509 -70.94017 36031 ft 422 kts 352°
2026-05-07 18:53 17.19309 -70.94998 36034 ft 422 kts 352°
2026-05-07 18:54 17.25115 -70.95975 36040 ft 422 kts 352°
2026-05-07 18:54 17.30918 -70.96951 36037 ft 422 kts 352°
2026-05-07 18:55 17.36718 -70.97932 36039 ft 422 kts 352°
2026-05-07 18:55 17.42519 -70.98917 36037 ft 422 kts 352°
2026-05-07 18:56 17.48323 -70.99903 36044 ft 423 kts 352°
2026-05-07 18:56 17.54091 -71.00881 36049 ft 423 kts 352°
2026-05-07 18:57 17.59901 -71.01865 36045 ft 423 kts 352°
2026-05-07 18:57 17.65713 -71.02845 36045 ft 423 kts 352°
2026-05-07 18:58 17.71527 -71.03826 36050 ft 423 kts 352°
2026-05-07 18:58 17.77340 -71.04812 36049 ft 423 kts 352°
2026-05-07 18:59 17.83150 -71.05806 36053 ft 423 kts 352°
2026-05-07 18:59 17.88959 -71.06793 36050 ft 423 kts 352°
2026-05-07 19:00 17.94767 -71.07780 36062 ft 423 kts 352°
2026-05-07 19:00 18.00579 -71.08773 36063 ft 423 kts 352°
2026-05-07 19:01 18.06385 -71.09765 36060 ft 423 kts 352°
2026-05-07 19:01 18.12190 -71.10757 36050 ft 422 kts 352°
2026-05-07 19:02 18.17959 -71.11740 36053 ft 423 kts 352°
2026-05-07 19:02 18.23771 -71.12727 36049 ft 423 kts 352°
2026-05-07 19:03 18.29594 -71.13617 36043 ft 422 kts 354°
2026-05-07 19:03 18.35435 -71.14279 36045 ft 422 kts 355°
2026-05-07 19:04 18.41280 -71.14918 36044 ft 422 kts 355°
2026-05-07 19:04 18.47123 -71.15598 36042 ft 422 kts 355°
2026-05-07 19:05 18.52964 -71.16310 36045 ft 422 kts 355°
2026-05-07 19:05 18.58804 -71.17019 36050 ft 422 kts 355°
2026-05-07 19:06 18.64651 -71.17721 36049 ft 422 kts 355°
2026-05-07 19:06 18.73373 -71.18773 36054 ft 423 kts 355°
2026-05-07 19:07 18.79219 -71.19477 36058 ft 422 kts 355°
2026-05-07 19:07 18.85061 -71.20181 36074 ft 423 kts 355°
2026-05-07 19:08 18.90905 -71.20884 36078 ft 423 kts 355°
2026-05-07 19:08 18.96753 -71.21594 36079 ft 423 kts 355°
2026-05-07 19:09 19.02599 -71.22308 36078 ft 423 kts 355°
2026-05-07 19:09 19.08449 -71.23015 36074 ft 423 kts 355°
2026-05-07 19:10 19.14297 -71.23715 36074 ft 423 kts 355°
2026-05-07 19:10 19.20145 -71.24417 36076 ft 423 kts 355°
2026-05-07 19:11 19.25996 -71.25125 36063 ft 423 kts 354°
2026-05-07 19:11 19.31846 -71.25841 36060 ft 423 kts 354°
2026-05-07 19:12 19.37697 -71.26565 36046 ft 423 kts 354°
2026-05-07 19:12 19.43551 -71.27275 36048 ft 423 kts 355°
2026-05-07 19:13 19.49370 -71.27978 36028 ft 424 kts 354°
2026-05-07 19:13 19.55229 -71.28689 36026 ft 424 kts 354°
2026-05-07 19:14 19.61086 -71.29407 36023 ft 424 kts 354°
2026-05-07 19:14 19.66953 -71.30118 36023 ft 424 kts 354°
2026-05-07 19:15 19.72818 -71.30831 36031 ft 424 kts 354°
2026-05-07 19:15 19.78688 -71.31547 36035 ft 424 kts 354°
2026-05-07 19:16 19.84557 -71.32262 36026 ft 425 kts 354°
2026-05-07 19:16 19.90429 -71.32974 36038 ft 425 kts 354°
2026-05-07 19:17 19.96302 -71.33694 36041 ft 425 kts 354°
2026-05-07 19:17 20.02135 -71.34416 36038 ft 425 kts 354°
2026-05-07 19:18 20.08008 -71.35139 36043 ft 425 kts 354°
2026-05-07 19:18 20.13882 -71.35860 36043 ft 425 kts 354°
2026-05-07 19:19 20.19756 -71.36581 36044 ft 425 kts 354°
2026-05-07 19:19 20.25638 -71.37296 36043 ft 425 kts 354°
2026-05-07 19:20 20.31517 -71.38010 36046 ft 425 kts 354°
2026-05-07 19:20 20.37356 -71.38966 36040 ft 426 kts 344°
2026-05-07 19:21 20.40103 -71.40160 36042 ft 428 kts 333°
2026-05-07 19:21 20.42585 -71.41922 36045 ft 432 kts 322°
2026-05-07 19:21 20.44707 -71.44206 36041 ft 436 kts 311°
2026-05-07 19:21 20.46455 -71.46859 36039 ft 439 kts 307°
2026-05-07 19:22 20.49858 -71.52266 36035 ft 439 kts 307°
2026-05-07 19:22 20.53271 -71.57681 36029 ft 440 kts 307°
2026-05-07 19:23 20.56687 -71.63112 36030 ft 441 kts 307°
2026-05-07 19:23 20.60103 -71.68562 36039 ft 442 kts 307°
2026-05-07 19:24 20.63499 -71.73980 36041 ft 442 kts 307°
2026-05-07 19:24 20.66920 -71.79439 36053 ft 442 kts 307°
2026-05-07 19:25 20.70343 -71.84899 36052 ft 442 kts 307°
2026-05-07 19:25 20.73764 -71.90362 36051 ft 442 kts 307°
2026-05-07 19:26 20.77176 -71.95826 36049 ft 442 kts 307°
2026-05-07 19:26 20.80581 -72.01288 36050 ft 441 kts 307°
2026-05-07 19:27 20.83981 -72.06750 36054 ft 441 kts 307°
2026-05-07 19:27 20.87381 -72.12206 36054 ft 441 kts 307°
2026-05-07 19:28 20.90780 -72.17665 36055 ft 441 kts 307°
2026-05-07 19:28 20.94175 -72.23120 36055 ft 441 kts 307°
2026-05-07 19:29 20.97567 -72.28581 36049 ft 441 kts 307°
2026-05-07 19:29 21.00964 -72.34045 36054 ft 441 kts 307°
2026-05-07 19:30 21.04352 -72.39509 36055 ft 441 kts 307°
2026-05-07 19:30 21.07735 -72.44977 36056 ft 440 kts 307°
2026-05-07 19:31 21.11112 -72.50446 36058 ft 440 kts 307°
2026-05-07 19:31 21.14485 -72.55915 36054 ft 440 kts 307°
2026-05-07 19:32 21.17860 -72.61380 36053 ft 440 kts 306°
2026-05-07 19:32 21.21232 -72.66843 36049 ft 439 kts 306°
2026-05-07 19:33 21.24600 -72.72304 36055 ft 439 kts 306°
2026-05-07 19:33 21.27960 -72.77768 36055 ft 439 kts 306°
2026-05-07 19:34 21.31300 -72.83190 36057 ft 439 kts 306°
2026-05-07 19:34 21.34663 -72.88648 36054 ft 439 kts 306°
2026-05-07 19:35 21.38016 -72.94111 36055 ft 438 kts 306°
2026-05-07 19:35 21.41358 -72.99579 36048 ft 438 kts 306°
2026-05-07 19:36 21.44703 -73.05049 36054 ft 438 kts 306°
2026-05-07 19:36 21.48056 -73.10515 36056 ft 438 kts 306°
2026-05-07 19:37 21.51403 -73.15986 36053 ft 438 kts 306°
2026-05-07 19:37 21.54746 -73.21455 36054 ft 438 kts 306°
2026-05-07 19:38 21.58085 -73.26930 36051 ft 438 kts 306°
2026-05-07 19:38 21.61420 -73.32410 36054 ft 438 kts 306°
2026-05-07 19:39 21.64758 -73.37888 36058 ft 438 kts 306°
2026-05-07 19:39 21.67534 -73.42437 36058 ft 438 kts 306°
2026-05-07 19:40 21.70870 -73.47915 36059 ft 437 kts 306°
2026-05-07 19:40 21.74192 -73.53396 36059 ft 437 kts 305°
2026-05-07 19:41 21.77509 -73.58876 36059 ft 437 kts 305°
2026-05-07 19:41 21.80828 -73.64356 36058 ft 437 kts 306°
2026-05-07 19:42 21.84148 -73.69838 36049 ft 437 kts 305°
2026-05-07 19:42 21.87462 -73.75322 36050 ft 437 kts 305°
2026-05-07 19:43 21.90778 -73.80806 36053 ft 437 kts 305°
2026-05-07 19:43 21.94090 -73.86294 36053 ft 437 kts 305°
2026-05-07 19:44 21.97401 -73.91781 36053 ft 437 kts 305°
2026-05-07 19:44 22.00707 -73.97270 36058 ft 436 kts 305°
2026-05-07 19:45 22.04013 -74.02758 36049 ft 436 kts 305°
2026-05-07 19:45 22.07311 -74.08248 36047 ft 436 kts 305°
2026-05-07 19:46 22.10589 -74.13702 36046 ft 436 kts 304°
2026-05-07 19:46 22.13881 -74.19195 36047 ft 436 kts 304°
2026-05-07 19:47 22.17174 -74.24694 36047 ft 436 kts 304°
2026-05-07 19:47 22.20473 -74.30196 36050 ft 436 kts 304°
2026-05-07 19:48 22.23768 -74.35696 36043 ft 437 kts 304°
2026-05-07 19:48 22.27059 -74.41207 36037 ft 437 kts 304°
2026-05-07 19:49 22.30358 -74.46726 36038 ft 437 kts 304°
2026-05-07 19:49 22.33646 -74.52252 36044 ft 437 kts 304°
2026-05-07 19:50 22.36932 -74.57785 36052 ft 438 kts 304°
2026-05-07 19:50 22.40222 -74.63316 36055 ft 438 kts 304°
2026-05-07 19:51 22.43516 -74.68847 36058 ft 438 kts 304°
2026-05-07 19:51 22.46809 -74.74379 36059 ft 438 kts 304°
2026-05-07 19:52 22.50092 -74.79920 36060 ft 438 kts 304°
2026-05-07 19:52 22.53370 -74.85467 36061 ft 438 kts 304°
2026-05-07 19:53 22.56654 -74.91013 36061 ft 438 kts 304°
2026-05-07 19:53 22.59940 -74.96568 36063 ft 438 kts 304°
2026-05-07 19:54 22.63108 -75.01937 36063 ft 438 kts 304°
2026-05-07 19:54 22.66390 -75.07498 36058 ft 438 kts 304°
2026-05-07 19:55 22.69671 -75.13062 36057 ft 439 kts 304°
2026-05-07 19:55 22.72946 -75.18638 36060 ft 439 kts 304°
2026-05-07 19:56 22.76222 -75.24212 36066 ft 438 kts 304°
2026-05-07 19:56 22.79502 -75.29777 36063 ft 438 kts 304°
2026-05-07 19:57 22.82775 -75.35344 36061 ft 438 kts 304°
2026-05-07 19:57 22.86033 -75.40917 36060 ft 438 kts 304°
2026-05-07 19:58 22.89268 -75.46456 36055 ft 438 kts 303°
2026-05-07 19:58 22.92536 -75.52042 36059 ft 438 kts 304°
2026-05-07 19:59 22.95803 -75.57623 36057 ft 438 kts 303°
2026-05-07 19:59 22.99065 -75.63208 36058 ft 438 kts 303°
2026-05-07 20:00 23.02326 -75.68789 36060 ft 438 kts 303°
2026-05-07 20:00 23.05579 -75.74376 36060 ft 438 kts 303°
2026-05-07 20:01 23.08829 -75.79972 36058 ft 438 kts 303°
2026-05-07 20:01 23.12075 -75.85567 36067 ft 438 kts 303°
2026-05-07 20:02 23.15323 -75.91157 36066 ft 437 kts 303°
2026-05-07 20:02 23.18566 -75.96743 36065 ft 437 kts 303°
2026-05-07 20:03 23.21783 -76.02291 36064 ft 436 kts 303°
2026-05-07 20:03 23.25016 -76.07872 36060 ft 436 kts 303°
2026-05-07 20:04 23.28242 -76.13455 36059 ft 436 kts 303°
2026-05-07 20:04 23.31462 -76.19043 36053 ft 436 kts 303°
2026-05-07 20:05 23.34680 -76.24629 36056 ft 436 kts 303°
2026-05-07 20:05 23.37907 -76.30218 36058 ft 436 kts 303°
2026-05-07 20:06 23.41129 -76.35810 36060 ft 436 kts 303°
2026-05-07 20:06 23.44343 -76.41412 36060 ft 436 kts 303°
2026-05-07 20:07 23.47558 -76.47016 36068 ft 436 kts 303°
2026-05-07 20:07 23.50773 -76.52620 36064 ft 436 kts 303°
2026-05-07 20:08 23.53976 -76.58221 36064 ft 435 kts 303°
2026-05-07 20:08 23.57178 -76.63813 36062 ft 434 kts 303°
2026-05-07 20:09 23.60352 -76.69358 36060 ft 434 kts 303°
2026-05-07 20:10 23.65134 -76.77741 36056 ft 434 kts 303°
2026-05-07 20:10 23.68321 -76.83325 36054 ft 434 kts 303°
2026-05-07 20:11 23.71503 -76.88912 36054 ft 433 kts 302°
2026-05-07 20:11 23.74683 -76.94495 36057 ft 433 kts 302°
2026-05-07 20:12 23.77855 -77.00078 36056 ft 433 kts 302°
2026-05-07 20:12 23.81032 -77.05660 36055 ft 432 kts 302°
2026-05-07 20:13 23.82749 -77.08682 36056 ft 433 kts 302°
2026-05-07 20:13 23.84247 -77.11321 36063 ft 433 kts 302°
2026-05-07 20:14 23.87409 -77.16910 36063 ft 432 kts 302°
2026-05-07 20:14 23.90564 -77.22499 36062 ft 432 kts 302°
2026-05-07 20:15 23.93696 -77.28049 36055 ft 432 kts 302°
2026-05-07 20:15 23.96851 -77.33633 36059 ft 432 kts 302°
2026-05-07 20:16 24.00002 -77.39216 36061 ft 431 kts 302°
2026-05-07 20:16 24.03149 -77.44804 36062 ft 431 kts 302°
2026-05-07 20:17 24.06286 -77.50388 36056 ft 431 kts 302°
2026-05-07 20:17 24.09426 -77.55970 36057 ft 431 kts 302°
2026-05-07 20:18 24.12564 -77.61555 36055 ft 430 kts 302°
2026-05-07 20:18 24.15694 -77.67140 36053 ft 430 kts 302°
2026-05-07 20:19 24.18823 -77.72728 36055 ft 430 kts 302°
2026-05-07 20:19 24.21949 -77.78320 36056 ft 430 kts 302°
2026-05-07 20:20 24.25071 -77.83915 36056 ft 430 kts 302°
2026-05-07 20:20 24.28219 -77.89495 36053 ft 430 kts 303°
2026-05-07 20:21 24.31549 -77.94941 36052 ft 430 kts 305°
2026-05-07 20:21 24.34951 -78.00333 36054 ft 430 kts 304°
2026-05-07 20:22 24.38318 -78.05749 36052 ft 430 kts 304°
2026-05-07 20:22 24.41647 -78.11192 36053 ft 429 kts 304°
2026-05-07 20:23 24.44970 -78.16638 36053 ft 429 kts 304°
2026-05-07 20:23 24.48297 -78.22080 36052 ft 429 kts 304°
2026-05-07 20:24 24.51630 -78.27525 36054 ft 429 kts 304°
2026-05-07 20:24 24.54935 -78.32929 36050 ft 429 kts 304°
2026-05-07 20:25 24.58253 -78.38385 36061 ft 429 kts 304°
2026-05-07 20:25 24.61570 -78.43829 36058 ft 428 kts 304°
2026-05-07 20:26 24.64883 -78.49270 36055 ft 428 kts 304°
2026-05-07 20:26 24.68191 -78.54713 36054 ft 428 kts 303°
2026-05-07 20:27 24.71500 -78.60155 36055 ft 428 kts 304°
2026-05-07 20:27 24.74810 -78.65597 36054 ft 428 kts 303°
2026-05-07 20:28 24.78110 -78.71046 35793 ft 427 kts 303°
2026-05-07 20:28 24.79755 -78.73767 35562 ft 427 kts 303°
2026-05-07 20:28 24.81399 -78.76485 35325 ft 427 kts 303°
2026-05-07 20:28 24.83045 -78.79212 35091 ft 428 kts 303°
2026-05-07 20:29 24.84695 -78.81942 34857 ft 428 kts 303°
2026-05-07 20:29 24.86346 -78.84674 34633 ft 429 kts 303°
2026-05-07 20:29 24.88003 -78.87415 34401 ft 430 kts 303°
2026-05-07 20:29 24.89660 -78.90157 34170 ft 431 kts 303°
2026-05-07 20:30 24.91322 -78.92909 33939 ft 431 kts 303°
2026-05-07 20:30 24.92984 -78.95661 33693 ft 432 kts 303°
2026-05-07 20:30 24.94647 -78.98421 33431 ft 432 kts 303°
2026-05-07 20:30 24.96309 -79.01185 32914 ft 434 kts 303°
2026-05-07 20:31 24.97964 -79.03937 31931 ft 438 kts 303°
2026-05-07 20:31 24.99653 -79.06742 30995 ft 441 kts 303°
2026-05-07 20:31 25.01360 -79.09572 30007 ft 445 kts 303°
2026-05-07 20:31 25.03078 -79.12426 28895 ft 448 kts 303°
2026-05-07 20:32 25.04801 -79.15297 27820 ft 450 kts 303°
2026-05-07 20:32 25.06533 -79.18187 26823 ft 452 kts 303°
2026-05-07 20:32 25.08251 -79.21057 26191 ft 445 kts 303°
2026-05-07 20:32 25.09949 -79.23889 25479 ft 441 kts 303°
2026-05-07 20:33 25.11635 -79.26704 24778 ft 438 kts 303°
2026-05-07 20:33 25.12763 -79.28591 24307 ft 435 kts 303°
2026-05-07 20:33 25.14960 -79.32264 23366 ft 431 kts 303°
2026-05-07 20:33 25.16071 -79.34121 22967 ft 426 kts 303°
2026-05-07 20:34 25.17645 -79.36753 22821 ft 407 kts 303°
2026-05-07 20:34 25.19170 -79.39310 22611 ft 391 kts 303°
2026-05-07 20:34 25.20643 -79.41784 22298 ft 382 kts 303°
2026-05-07 20:34 25.22098 -79.44222 21981 ft 380 kts 303°
2026-05-07 20:35 25.23546 -79.46649 21480 ft 377 kts 303°
2026-05-07 20:35 25.24986 -79.49059 20976 ft 374 kts 303°
2026-05-07 20:35 25.26413 -79.51453 20473 ft 372 kts 303°
2026-05-07 20:35 25.27833 -79.53836 19982 ft 370 kts 303°
2026-05-07 20:36 25.29238 -79.56198 19478 ft 367 kts 303°
2026-05-07 20:36 25.30637 -79.58553 18986 ft 365 kts 303°
2026-05-07 20:36 25.32025 -79.60892 18496 ft 363 kts 303°
2026-05-07 20:36 25.33405 -79.63220 17960 ft 361 kts 304°
2026-05-07 20:37 25.34782 -79.65541 17476 ft 360 kts 303°
2026-05-07 20:37 25.36150 -79.67850 16977 ft 359 kts 303°
2026-05-07 20:37 25.37516 -79.70151 16492 ft 357 kts 303°
2026-05-07 20:37 25.38876 -79.72442 16014 ft 355 kts 304°
2026-05-07 20:38 25.40259 -79.74696 15702 ft 354 kts 305°
2026-05-07 20:38 25.41681 -79.76924 15403 ft 354 kts 306°
2026-05-07 20:38 25.43117 -79.79130 15102 ft 353 kts 306°
2026-05-07 20:38 25.44554 -79.81330 14797 ft 352 kts 306°
2026-05-07 20:39 25.45983 -79.83522 14495 ft 350 kts 306°
2026-05-07 20:39 25.47399 -79.85709 14194 ft 350 kts 306°
2026-05-07 20:39 25.48808 -79.87896 13812 ft 349 kts 306°
2026-05-07 20:39 25.50222 -79.90100 13127 ft 351 kts 306°
2026-05-07 20:40 25.51622 -79.92290 12694 ft 346 kts 306°
2026-05-07 20:40 25.53000 -79.94451 12218 ft 342 kts 306°
2026-05-07 20:40 25.54366 -79.96593 11796 ft 337 kts 306°
2026-05-07 20:40 25.55687 -79.98661 11680 ft 322 kts 306°
2026-05-07 20:41 25.56957 -80.00645 11534 ft 309 kts 306°
2026-05-07 20:41 25.58188 -80.02569 11214 ft 304 kts 306°
2026-05-07 20:41 25.59407 -80.04475 10823 ft 302 kts 306°
2026-05-07 20:41 25.60619 -80.06369 10418 ft 301 kts 306°
2026-05-07 20:42 25.61825 -80.08259 10008 ft 300 kts 306°
2026-05-07 20:42 25.63026 -80.10144 9572 ft 299 kts 306°
2026-05-07 20:42 25.64218 -80.12015 9319 ft 297 kts 306°
2026-05-07 20:42 25.65386 -80.13902 9004 ft 297 kts 300°
2026-05-07 20:43 25.66289 -80.15943 8732 ft 294 kts 295°
2026-05-07 20:43 25.67153 -80.17989 8472 ft 292 kts 295°
2026-05-07 20:43 25.68015 -80.20020 8206 ft 290 kts 295°
2026-05-07 20:43 25.68876 -80.22038 7949 ft 289 kts 295°
2026-05-07 20:44 25.69731 -80.24044 7660 ft 286 kts 295°
2026-05-07 20:44 25.70569 -80.26035 7360 ft 284 kts 292°
2026-05-07 20:44 25.71096 -80.28130 7074 ft 282 kts 277°
2026-05-07 20:44 25.71146 -80.30287 6790 ft 280 kts 266°
2026-05-07 20:45 25.71033 -80.32443 6506 ft 280 kts 266°
2026-05-07 20:45 25.70930 -80.34581 6211 ft 276 kts 266°
2026-05-07 20:45 25.70846 -80.36702 5835 ft 274 kts 268°
2026-05-07 20:45 25.70764 -80.38782 5546 ft 267 kts 267°
2026-05-07 20:46 25.70659 -80.40810 5356 ft 258 kts 266°
2026-05-07 20:46 25.70534 -80.42744 5230 ft 245 kts 266°
2026-05-07 20:46 25.70401 -80.44582 5120 ft 234 kts 266°
2026-05-07 20:46 25.70273 -80.46368 4972 ft 231 kts 265°
2026-05-07 20:47 25.70148 -80.48136 4714 ft 229 kts 266°
2026-05-07 20:47 25.70033 -80.49863 4417 ft 227 kts 271°
2026-05-07 20:47 25.70473 -80.51515 4111 ft 226 kts 303°
2026-05-07 20:47 25.71668 -80.52635 3768 ft 230 kts 335°
2026-05-07 20:48 25.73233 -80.52913 3608 ft 226 kts 357°
2026-05-07 20:48 25.74751 -80.52649 3516 ft 218 kts 16°
2026-05-07 20:48 25.76060 -80.51886 3427 ft 212 kts 35°
2026-05-07 20:48 25.77084 -80.50716 3285 ft 213 kts 53°
2026-05-07 20:49 25.77728 -80.49238 3080 ft 214 kts 73°
2026-05-07 20:49 25.77927 -80.47611 2822 ft 212 kts 88°
2026-05-07 20:49 25.77995 -80.45981 2556 ft 211 kts 87°
2026-05-07 20:49 25.78064 -80.44352 2286 ft 212 kts 88°
2026-05-07 20:50 25.78133 -80.42727 2018 ft 209 kts 89°
2026-05-07 20:50 25.78201 -80.41150 1757 ft 201 kts 89°
2026-05-07 20:50 25.78266 -80.39643 1479 ft 188 kts 89°
2026-05-07 20:50 25.78325 -80.38271 1270 ft 169 kts 91°
2026-05-07 20:51 25.78378 -80.37028 1057 ft 154 kts 90°
2026-05-07 20:51 25.78426 -80.35872 880 ft 149 kts 91°
2026-05-07 20:51 25.78476 -80.34749 688 ft 141 kts 89°
2026-05-07 20:51 25.78523 -80.33667 486 ft 140 kts 92°
2026-05-07 20:52 25.78564 -80.32591 295 ft 139 kts 91°
2026-05-07 20:52 25.78611 -80.31516 107 ft 139 kts 92°
2026-05-07 20:52 25.78652 -80.30468 15 ft 125 kts 87°
2026-05-07 20:52 25.78683 -80.29740 15 ft 68 kts 88°
2026-05-07 20:53 25.78699 -80.29394 15 ft 34 kts 84°
2026-05-07 20:53 25.78743 -80.29224 17 ft 16 kts 56°
2026-05-07 20:53 25.78767 -80.29195 16 ft 0 kts 43°
2026-05-07 20:54 25.78768 -80.29194 16 ft 0 kts 43°
2026-05-07 20:54 25.78773 -80.29189 17 ft 2 kts 43°
2026-05-07 20:54 25.78800 -80.29159 15 ft 8 kts 50°
2026-05-07 20:54 25.78819 -80.29104 15 ft 7 kts 84°
2026-05-07 20:55 25.78821 -80.29048 15 ft 7 kts 87°
2026-05-07 20:55 25.78831 -80.28993 15 ft 8 kts 75°
2026-05-07 20:55 25.78847 -80.28927 15 ft 9 kts 75°